Location: Zilina
(0.0000°N, 18.7333°E)
Time: 02:58:39
(UTC+02:00)

Cosmos 1862 Rocket - Pass Details

Date: 19 February 2019
Orbit: 603 x 635 km, 82.5° (Epoch: 19 October)

Event Time Altitude Azimuth Distance (km) Brightness Sun altitude
Rises 18:31:32 0° 349° (NNW) 2,860 7.0 -8.0°
Reaches altitude 10° 18:33:47 10° 344° (NNW) 1,954 6.2 -8.6°
Maximum altitude 18:38:01 56° 266° (W) 725 4.3 -9.6°
Drops below altitude 10° 18:42:14 10° 188° (S) 1,950 6.4 -10.6°
Sets 18:44:29 0° 184° (S) 2,854 7.2 -11.2°
